Regional Weather Roundup
Issued by NWS Newport/Morehead, NC

Current Version | Previous Version | Text Only | Print | Product List | Glossary On
Versions: 1 2 3 4 5 6 7 8 9 10 11 12 13 14 15 16 17 18 19 20 21 22 23 24 25 26 27 28 29 30 31 32 33 34 35 36 37 38 39 40 41 42 43 44 45 46 47 48 49 50
000
ASUS42 KMHX 311113
RWRMHX
WEATHER ROUNDUP FOR EASTERN NORTH CAROLINA
NATIONAL WEATHER SERVICE NEWPORT/MOREHEAD CITY NC
700 AM EDT WED AUG 31 2016

NOTE: "FAIR" INDICATES FEW OR NO CLOUDS BELOW 12,000 FEET
WITH NO SIGNIFICANT WEATHER AND/OR OBSTRUCTIONS TO VISIBILITY

NCZ015>017-031-032-045>047-102-103-311200-
NORTH COAST

CITY           SKY/WX    TMP DP  RH WIND       PRES   REMARKS
EDENTON        FOG      N/A N/A N/A N6        30.01R VSB 1/4
ELIZABETH CITY CLOUDY    75  74  96 NW6       30.00R
KITTY HAWK     SUNNY     78  78 100 N5        29.97R
MANTEO         PTCLDY    78  77  99 NE6       29.98S

$$

NCZ045>047-081-094-103-104-311200-
CENTRAL COAST

CITY           SKY/WX    TMP DP  RH WIND       PRES   REMARKS
FRISCO         MOCLDY    79  75  87 VRB5      29.97R

$$

NCZ095-097-098-100-101-311200-
SOUTHERN COAST

CITY           SKY/WX    TMP DP  RH WIND       PRES   REMARKS
BEAUFORT       CLOUDY    76  76 100 N7        29.98S
CEDAR ISLAND   NOT AVBL
JACKSONVILLE   CLOUDY    74  73  97 N6        30.00R FOG
PINEY ISLAND   PTSUNNY  N/A N/A N/A N8        29.98S
WILMINGTON     PTCLDY    73  72  96 NE3       29.99S


$$

NCZ011>013-027>030-043-044-078>080-089-090>093-098-311200-
COASTAL PLAIN

CITY           SKY/WX    TMP DP  RH WIND       PRES   REMARKS
AHOSKIE        FOG       71  71  99 CALM      30.02S VSB<1/4
CLINTON        PTCLDY    72  72 100 CALM      30.01S
ELIZABETHTOWN  CLOUDY    74  74 100 CALM      30.00S
GOLDSBORO      PTCLDY    72  72 100 NW1       29.99S
GREENVILLE     HVY RAIN  72  72 100 CALM      30.03S VSB 1/4
HAVELOCK       CLOUDY    76  74  93 N8        30.00S FOG
KENANSVILLE    FOG       72  72 100 CALM      30.01R VSB<1/4
KINSTON        FOG       73  73 100 CALM      30.01S VSB 1/8
NEW BERN       CLOUDY    75  74  96 N5        30.01S FOG
RICHLANDS      FOG       73  73 100 NE3       30.01R VSB<1/4
ROCKY MOUNT    FOG       72  72 100 CALM      30.02S VSB<1/4
WASHINGTON     FOG       72  72  99 N3        30.01S VSB<1/4
WHITEVILLE     DRIZZLE   75  74  96 CALM      29.99S

$$

AMZ130-135-150-152-154-156-158-170-250-252-270-ANZ085-086-088-633-658-670-311200-
MARINE OBSERVATIONS

STATION/POSITION TIME  TEMP    WIND        PRES    WAVE   SWELL
                       AIR SEA DIR/SP/G            HT/PER HT/PER
                 (UTC) (F)     (DEG/KT/KT) (MB)    (FT/S) (FT/S)
CHESAPEAKE LIGHT NOT AVBL
64 E VA BEACH    1050   80 81   40/ 12/ 14 1014.5    3/11   2/11
DUCK             1000   79 80   30/ 10/ 11 1014.5
2 E DUCK         1011      78                N/A     4/11   2/11
OREGON INLET     1000   78 80  350/  3/  5 1014.6
13E OREGON INLT  1100      80                N/A     4/11   5/11
HATTERAS CG      1000   80 82  350/  7/  8 1014.2
DIAMOND BUOY     1050   81 85  340/ 12/ 14 1014.2    5/11   5/11
CAPE LOOKOUT     1100   77     340/  8/  9 1014.9
BEAUFORT LAB     1000   77 80  330/  5/  7 1014.7
30 SE NEW RVR IN 1008   80 84   10/  8/ 12 1015.1
30 SE NEW RVR IN 1025      84                N/A     3/11   2/11
27 SE WRIGHTSVLE 1008   81 84   10/  6/  8 1015.1
5 SE WRIGHTSVLE  1008   80 83   20/  8/ 10 1016.1
225 S CAPE HAT   1050   82 83  240/  8/  8 1015.8    4/11   3/11
41 SE CHARLESTON 1050   80 84  170/ 14/ 16 1013.7    4/ 9   3/ 9

$$




USA.gov is the U.S. government's official web portal to all federal, state and local government web resources and services.